Time,TemperatureF,DewpointF,PressureIn,WindDirection,WindDirectionDegrees,WindSpeedMPH,WindSpeedGustMPH,Humidity,HourlyPrecipIn,Conditions,Clouds,dailyrainin,SoftwareType,DateUTC
2014-08-22 00:00:00,66.7,43.5,29.70,NNW,327,0.0,0.0,43,0.00,,,0.00,Wunderground v.1.15,2014-08-22 07:00:00,
2014-08-22 00:05:00,66.5,43.9,29.70,NNW,327,0.0,0.0,44,0.00,,,0.00,Wunderground v.1.15,2014-08-22 07:05:00,
2014-08-22 00:10:00,66.4,43.2,29.70,NNW,327,0.0,0.0,43,0.00,,,0.00,Wunderground v.1.15,2014-08-22 07:10:00,
2014-08-22 00:15:00,66.3,43.7,29.70,NNW,327,0.0,0.0,44,0.00,,,0.00,Wunderground v.1.15,2014-08-22 07:15:00,
2014-08-22 00:20:00,66.3,43.7,29.70,NNW,346,0.0,0.0,44,0.00,,,0.00,Wunderground v.1.15,2014-08-22 07:20:00,
2014-08-22 00:25:00,66.3,43.1,29.70,NNW,346,0.0,0.0,43,0.00,,,0.00,Wunderground v.1.15,2014-08-22 07:25:00,
2014-08-22 00:30:00,66.3,43.1,29.70,NNW,346,0.0,0.0,43,0.00,,,0.00,Wunderground v.1.15,2014-08-22 07:30:00,
2014-08-22 00:35:00,66.3,43.1,29.70,NNW,346,0.0,0.0,43,0.00,,,0.00,Wunderground v.1.15,2014-08-22 07:35:00,
2014-08-22 00:40:00,66.1,43.5,29.70,NNW,346,0.0,0.0,44,0.00,,,0.00,Wunderground v.1.15,2014-08-22 07:40:00,
2014-08-22 00:45:00,66.0,43.5,29.70,NNW,346,0.0,0.0,44,0.00,,,0.00,Wunderground v.1.15,2014-08-22 07:45:00,
2014-08-22 00:50:00,65.9,42.8,29.70,NNW,346,0.0,0.0,43,0.00,,,0.00,Wunderground v.1.15,2014-08-22 07:50:00,
2014-08-22 00:55:00,65.8,43.3,29.71,NNW,346,0.0,0.0,44,0.00,,,0.00,Wunderground v.1.15,2014-08-22 07:55:00,
2014-08-22 01:00:00,65.7,43.2,29.70,NNW,346,0.0,0.0,44,0.00,,,0.00,Wunderground v.1.15,2014-08-22 08:00:00,
2014-08-22 01:05:00,65.9,43.4,29.70,NNW,346,0.0,0.0,44,0.00,,,0.00,Wunderground v.1.15,2014-08-22 08:05:00,
2014-08-22 01:10:00,65.9,42.8,29.70,NNW,346,0.0,0.0,43,0.00,,,0.00,Wunderground v.1.15,2014-08-22 08:10:00,
2014-08-22 01:15:00,65.8,42.7,29.70,NNW,346,0.0,0.0,43,0.00,,,0.00,Wunderground v.1.15,2014-08-22 08:15:00,
2014-08-22 01:20:00,65.6,43.1,29.70,NNW,346,0.0,0.0,44,0.00,,,0.00,Wunderground v.1.15,2014-08-22 08:20:00,
2014-08-22 01:25:00,65.6,43.1,29.71,NNW,346,0.0,0.0,44,0.00,,,0.00,Wunderground v.1.15,2014-08-22 08:25:00,
2014-08-22 01:30:00,65.6,43.1,29.71,NNW,346,0.0,0.0,44,0.00,,,0.00,Wunderground v.1.15,2014-08-22 08:30:00,
2014-08-22 01:35:00,65.6,43.7,29.70,North,9,0.0,0.0,45,0.00,,,0.00,Wunderground v.1.15,2014-08-22 08:35:00,
2014-08-22 01:40:00,66.1,43.5,29.70,NNE,12,1.0,1.0,44,0.00,,,0.00,Wunderground v.1.15,2014-08-22 08:40:00,
2014-08-22 01:45:00,66.7,44.1,29.70,NE,55,2.0,2.0,44,0.00,,,0.00,Wunderground v.1.15,2014-08-22 08:45:00,
2014-08-22 01:50:00,67.1,43.8,29.70,North,360,2.0,2.0,43,0.00,,,0.00,Wunderground v.1.15,2014-08-22 08:50:00,
2014-08-22 01:55:00,67.2,43.3,29.70,NE,51,1.0,2.0,42,0.00,,,0.00,Wunderground v.1.15,2014-08-22 08:55:00,
2014-08-22 02:00:00,66.7,43.5,29.70,NE,51,0.0,0.0,43,0.00,,,0.00,Wunderground v.1.15,2014-08-22 09:00:00,
2014-08-22 02:05:00,66.1,42.9,29.71,NE,51,0.0,0.0,43,0.00,,,0.00,Wunderground v.1.15,2014-08-22 09:05:00,
2014-08-22 02:10:00,65.5,42.4,29.71,ENE,69,0.0,0.0,43,0.00,,,0.00,Wunderground v.1.15,2014-08-22 09:10:00,
2014-08-22 02:15:00,64.9,43.0,29.71,ENE,69,0.0,0.0,45,0.00,,,0.00,Wunderground v.1.15,2014-08-22 09:15:00,
2014-08-22 02:20:00,64.4,42.6,29.71,ENE,69,0.0,0.0,45,0.00,,,0.00,Wunderground v.1.15,2014-08-22 09:20:00,
2014-08-22 02:25:00,63.9,42.7,29.71,ENE,69,0.0,0.0,46,0.00,,,0.00,Wunderground v.1.15,2014-08-22 09:25:00,
2014-08-22 02:30:00,63.6,42.4,29.71,ENE,69,0.0,0.0,46,0.00,,,0.00,Wunderground v.1.15,2014-08-22 09:30:00,
2014-08-22 02:35:00,63.4,42.8,29.71,ENE,69,0.0,0.0,47,0.00,,,0.00,Wunderground v.1.15,2014-08-22 09:35:00,
2014-08-22 02:40:00,63.1,42.5,29.71,SE,140,0.0,0.0,47,0.00,,,0.00,Wunderground v.1.15,2014-08-22 09:40:00,
2014-08-22 02:45:00,62.9,42.9,29.71,SE,140,0.0,0.0,48,0.00,,,0.00,Wunderground v.1.15,2014-08-22 09:45:00,
2014-08-22 02:50:00,62.7,42.7,29.71,SE,140,0.0,0.0,48,0.00,,,0.00,Wunderground v.1.15,2014-08-22 09:50:00,
2014-08-22 02:55:00,62.5,43.1,29.71,SE,140,0.0,0.0,49,0.00,,,0.00,Wunderground v.1.15,2014-08-22 09:55:00,
2014-08-22 03:00:00,62.5,43.1,29.71,SE,140,0.0,0.0,49,0.00,,,0.00,Wunderground v.1.15,2014-08-22 10:00:00,
2014-08-22 03:10:00,62.7,43.3,29.71,SSE,155,0.0,0.0,49,0.00,,,0.00,Wunderground v.1.15,2014-08-22 10:10:00,
2014-08-22 03:15:00,62.8,43.3,29.71,SSE,155,0.0,0.0,49,0.00,,,0.00,Wunderground v.1.15,2014-08-22 10:15:00,
2014-08-22 03:20:00,62.8,43.3,29.71,SSE,155,0.0,0.0,49,0.00,,,0.00,Wunderground v.1.15,2014-08-22 10:20:00,
2014-08-22 03:25:00,62.7,43.3,29.71,SSE,155,0.0,0.0,49,0.00,,,0.00,Wunderground v.1.15,2014-08-22 10:25:00,
2014-08-22 03:38:00,62.5,43.1,29.71,SE,140,0.0,0.0,49,0.00,,,0.00,Wunderground v.1.15,2014-08-22 10:38:00,
2014-08-22 03:40:00,62.5,43.1,29.71,SSE,157,0.0,0.0,49,0.00,,,0.00,Wunderground v.1.15,2014-08-22 10:40:00,
2014-08-22 03:45:00,62.7,42.7,29.71,SSE,157,0.0,0.0,48,0.00,,,0.00,Wunderground v.1.15,2014-08-22 10:45:00,
2014-08-22 03:50:00,62.5,43.1,29.71,SE,145,0.0,0.0,49,0.00,,,0.00,Wunderground v.1.15,2014-08-22 10:50:00,
2014-08-22 03:55:00,62.4,43.0,29.71,SE,145,0.0,0.0,49,0.00,,,0.00,Wunderground v.1.15,2014-08-22 10:55:00,
2014-08-22 04:03:00,62.5,43.1,29.71,SSE,155,0.0,0.0,49,0.00,,,0.00,Wunderground v.1.15,2014-08-22 11:03:00,
2014-08-22 04:05:00,62.2,43.3,29.71,SE,145,0.0,0.0,50,0.00,,,0.00,Wunderground v.1.15,2014-08-22 11:05:00,
2014-08-22 04:08:00,62.4,43.0,29.71,SSE,155,0.0,0.0,49,0.00,,,0.00,Wunderground v.1.15,2014-08-22 11:08:00,
2014-08-22 04:10:00,62.4,43.5,29.71,NE,44,0.0,0.0,50,0.00,,,0.00,Wunderground v.1.15,2014-08-22 11:10:00,
2014-08-22 04:15:00,62.6,43.2,29.71,NE,44,0.0,0.0,49,0.00,,,0.00,Wunderground v.1.15,2014-08-22 11:15:00,
2014-08-22 04:25:00,63.8,43.7,29.71,NW,319,1.0,1.0,48,0.00,,,0.00,Wunderground v.1.15,2014-08-22 11:25:00,
2014-08-22 04:33:00,62.2,43.3,29.71,SE,145,0.0,0.0,50,0.00,,,0.00,Wunderground v.1.15,2014-08-22 11:33:00,
2014-08-22 04:40:00,64.3,43.6,29.71,NW,322,0.0,0.0,47,0.00,,,0.00,Wunderground v.1.15,2014-08-22 11:40:00,
2014-08-22 04:53:00,63.1,43.6,29.71,WNW,284,0.0,0.0,49,0.00,,,0.00,Wunderground v.1.15,2014-08-22 11:53:00,
2014-08-22 04:55:00,65.2,43.3,29.71,NNE,28,0.0,1.0,45,0.00,,,0.00,Wunderground v.1.15,2014-08-22 11:55:00,
2014-08-22 05:03:00,64.0,43.4,29.71,NW,319,0.0,0.0,47,0.00,,,0.00,Wunderground v.1.15,2014-08-22 12:03:00,
2014-08-22 05:05:00,63.8,43.2,29.71,NNE,28,0.0,0.0,47,0.00,,,0.00,Wunderground v.1.15,2014-08-22 12:05:00,
2014-08-22 05:10:00,63.1,43.1,29.71,NNE,28,0.0,0.0,48,0.00,,,0.00,Wunderground v.1.15,2014-08-22 12:10:00,
2014-08-22 05:18:00,64.8,43.5,29.71,NW,321,1.0,1.0,46,0.00,,,0.00,Wunderground v.1.15,2014-08-22 12:18:00,
2014-08-22 05:25:00,62.3,43.4,29.71,NNE,28,0.0,0.0,50,0.00,,,0.00,Wunderground v.1.15,2014-08-22 12:25:00,
2014-08-22 05:30:00,62.3,43.4,29.71,NNE,28,0.0,0.0,50,0.00,,,0.00,Wunderground v.1.15,2014-08-22 12:30:00,
2014-08-22 05:33:00,64.5,43.3,29.71,NNE,28,0.0,0.0,46,0.00,,,0.00,Wunderground v.1.15,2014-08-22 12:33:00,
2014-08-22 05:35:00,62.2,43.3,29.71,NNE,28,0.0,0.0,50,0.00,,,0.00,Wunderground v.1.15,2014-08-22 12:35:00,
2014-08-22 05:48:00,62.6,43.2,29.71,NNE,28,0.0,0.0,49,0.00,,,0.00,Wunderground v.1.15,2014-08-22 12:48:00,
2014-08-22 05:50:00,64.6,43.9,29.71,NNW,334,2.0,4.0,47,0.00,,,0.00,Wunderground v.1.15,2014-08-22 12:50:00,
2014-08-22 05:55:00,65.4,44.1,29.71,NNE,13,2.0,4.0,46,0.00,,,0.00,Wunderground v.1.15,2014-08-22 12:55:00,
2014-08-22 06:13:00,62.6,43.7,29.71,NW,318,1.0,1.0,50,0.00,,,0.00,Wunderground v.1.15,2014-08-22 13:13:00,
2014-08-22 06:20:00,64.0,43.9,29.72,NNE,22,0.0,0.0,48,0.00,,,0.00,Wunderground v.1.15,2014-08-22 13:20:00,
2014-08-22 06:25:00,63.7,43.6,29.72,NNE,22,0.0,0.0,48,0.00,,,0.00,Wunderground v.1.15,2014-08-22 13:25:00,
2014-08-22 06:33:00,65.7,43.8,29.72,NNE,22,2.0,2.0,45,0.00,,,0.00,Wunderground v.1.15,2014-08-22 13:33:00,
2014-08-22 06:35:00,63.4,43.9,29.72,NNE,22,0.0,0.0,49,0.00,,,0.00,Wunderground v.1.15,2014-08-22 13:35:00,
2014-08-22 06:38:00,65.3,44.0,29.71,NNE,22,1.0,2.0,46,0.00,,,0.00,Wunderground v.1.15,2014-08-22 13:38:00,
2014-08-22 06:45:00,63.5,44.5,29.72,SW,231,0.0,0.0,50,0.00,,,0.00,Wunderground v.1.15,2014-08-22 13:45:00,
2014-08-22 06:48:00,64.2,43.5,29.72,NNE,22,0.0,0.0,47,0.00,,,0.00,Wunderground v.1.15,2014-08-22 13:48:00,
2014-08-22 06:50:00,63.6,44.6,29.72,SW,231,0.0,0.0,50,0.00,,,0.00,Wunderground v.1.15,2014-08-22 13:50:00,
2014-08-22 06:55:00,63.7,44.7,29.72,SW,231,0.0,0.0,50,0.00,,,0.00,Wunderground v.1.15,2014-08-22 13:55:00,
2014-08-22 07:03:00,63.4,43.9,29.72,NNE,22,0.0,0.0,49,0.00,,,0.00,Wunderground v.1.15,2014-08-22 14:03:00,
2014-08-22 07:13:00,63.4,44.4,29.72,NNE,22,0.0,0.0,50,0.00,,,0.00,Wunderground v.1.15,2014-08-22 14:13:00,
2014-08-22 07:15:00,65.6,44.8,29.72,SW,231,0.0,0.0,47,0.00,,,0.00,Wunderground v.1.15,2014-08-22 14:15:00,
2014-08-22 07:30:00,68.8,46.0,29.72,SW,222,0.0,0.0,44,0.00,,,0.00,Wunderground v.1.15,2014-08-22 14:30:00,
2014-08-22 07:33:00,64.0,44.4,29.71,SW,231,0.0,0.0,49,0.00,,,0.00,Wunderground v.1.15,2014-08-22 14:33:00,
2014-08-22 07:40:00,71.6,47.3,29.72,SW,222,0.0,0.0,42,0.00,,,0.00,Wunderground v.1.15,2014-08-22 14:40:00,
2014-08-22 07:43:00,65.0,44.8,29.72,SW,231,0.0,0.0,48,0.00,,,0.00,Wunderground v.1.15,2014-08-22 14:43:00,
2014-08-22 07:45:00,72.8,47.1,29.72,SW,222,0.0,0.0,40,0.00,,,0.00,Wunderground v.1.15,2014-08-22 14:45:00,
2014-08-22 07:53:00,66.3,44.9,29.72,SW,231,0.0,0.0,46,0.00,,,0.00,Wunderground v.1.15,2014-08-22 14:53:00,
2014-08-22 07:55:00,75.4,47.3,29.72,SW,222,0.0,0.0,37,0.00,,,0.00,Wunderground v.1.15,2014-08-22 14:55:00,
2014-08-22 08:08:00,70.3,46.7,29.72,SW,222,0.0,0.0,43,0.00,,,0.00,Wunderground v.1.15,2014-08-22 15:08:00,
2014-08-22 08:10:00,78.3,46.8,29.71,SW,222,0.0,0.0,33,0.00,,,0.00,Wunderground v.1.15,2014-08-22 15:10:00,
2014-08-22 08:23:00,74.2,47.6,29.72,SW,222,0.0,0.0,39,0.00,,,0.00,Wunderground v.1.15,2014-08-22 15:23:00,
2014-08-22 08:30:00,80.7,46.4,29.71,SE,136,1.0,1.0,30,0.00,,,0.00,Wunderground v.1.15,2014-08-22 15:30:00,
2014-08-22 08:33:00,76.3,47.4,29.72,SW,222,0.0,0.0,36,0.00,,,0.00,Wunderground v.1.15,2014-08-22 15:33:00,
2014-08-22 08:38:00,77.5,47.7,29.72,SW,222,0.0,0.0,35,0.00,,,0.00,Wunderground v.1.15,2014-08-22 15:38:00,
2014-08-22 08:48:00,78.9,46.5,29.71,SW,222,0.0,1.0,32,0.00,,,0.00,Wunderground v.1.15,2014-08-22 15:48:00,
2014-08-22 08:53:00,79.5,46.2,29.71,SW,223,0.0,0.0,31,0.00,,,0.00,Wunderground v.1.15,2014-08-22 15:53:00,
2014-08-22 08:58:00,80.2,46.8,29.71,SW,223,0.0,1.0,31,0.00,,,0.00,Wunderground v.1.15,2014-08-22 15:58:00,
2014-08-22 09:08:00,81.3,46.9,29.71,SSE,148,1.0,1.0,30,0.00,,,0.00,Wunderground v.1.15,2014-08-22 16:08:00,
2014-08-22 09:18:00,82.2,45.8,29.71,SE,132,2.0,2.0,28,0.00,,,0.00,Wunderground v.1.15,2014-08-22 16:18:00,
2014-08-22 09:28:00,83.2,46.7,29.71,SE,136,2.0,2.0,28,0.00,,,0.00,Wunderground v.1.15,2014-08-22 16:28:00,
2014-08-22 09:38:00,83.6,47.0,29.71,SSW,205,2.0,3.0,28,0.00,,,0.00,Wunderground v.1.15,2014-08-22 16:38:00,
2014-08-22 09:40:00,85.6,46.8,29.71,ENE,69,3.0,6.0,26,0.00,,,0.00,Wunderground v.1.15,2014-08-22 16:40:00,
2014-08-22 09:48:00,84.8,47.1,29.71,South,190,1.0,4.0,27,0.00,,,0.00,Wunderground v.1.15,2014-08-22 16:48:00,
2014-08-22 09:53:00,85.3,46.5,29.71,WSW,242,1.0,4.0,26,0.00,,,0.00,Wunderground v.1.15,2014-08-22 16:53:00,
2014-08-22 10:03:00,85.4,46.6,29.71,SE,128,3.0,3.0,26,0.00,,,0.00,Wunderground v.1.15,2014-08-22 17:03:00,
2014-08-22 10:18:00,85.7,48.8,29.71,SE,134,4.0,6.0,28,0.00,,,0.00,Wunderground v.1.15,2014-08-22 17:18:00,
2014-08-22 10:28:00,86.6,47.6,29.71,ENE,67,4.0,5.0,26,0.00,,,0.00,Wunderground v.1.15,2014-08-22 17:28:00,
2014-08-22 10:35:00,88.4,48.1,29.70,SE,142,2.0,3.0,25,0.00,,,0.00,Wunderground v.1.15,2014-08-22 17:35:00,
2014-08-22 10:38:00,86.8,47.8,29.71,WSW,240,4.0,5.0,26,0.00,,,0.00,Wunderground v.1.15,2014-08-22 17:38:00,
2014-08-22 10:48:00,87.7,47.5,29.71,SE,130,2.0,4.0,25,0.00,,,0.00,Wunderground v.1.15,2014-08-22 17:48:00,
2014-08-22 10:55:00,89.5,45.6,29.70,South,173,2.0,6.0,22,0.00,,,0.00,Wunderground v.1.15,2014-08-22 17:55:00,
2014-08-22 10:58:00,88.1,47.9,29.71,SSW,201,3.0,6.0,25,0.00,,,0.00,Wunderground v.1.15,2014-08-22 17:58:00,
2014-08-22 11:13:00,88.5,47.1,29.70,WSW,253,2.0,5.0,24,0.00,,,0.00,Wunderground v.1.15,2014-08-22 18:13:00,
2014-08-22 11:18:00,88.2,46.8,29.70,South,177,3.0,5.0,24,0.00,,,0.00,Wunderground v.1.15,2014-08-22 18:18:00,
2014-08-22 11:33:00,89.6,44.5,29.70,WSW,254,1.0,5.0,21,0.00,,,0.00,Wunderground v.1.15,2014-08-22 18:33:00,
2014-08-22 11:38:00,90.0,46.0,29.69,ESE,114,2.0,5.0,22,0.00,,,0.00,Wunderground v.1.15,2014-08-22 18:38:00,
2014-08-22 11:40:00,88.9,46.3,29.69,East,93,5.0,5.0,23,0.00,,,0.00,Wunderground v.1.15,2014-08-22 18:40:00,
2014-08-22 11:45:00,89.2,46.6,29.69,WSW,257,4.0,5.0,23,0.00,,,0.00,Wunderground v.1.15,2014-08-22 18:45:00,
2014-08-22 11:48:00,90.1,44.9,29.69,SSW,209,2.0,5.0,21,0.00,,,0.00,Wunderground v.1.15,2014-08-22 18:48:00,
2014-08-22 11:50:00,89.8,47.1,29.69,SSE,161,4.0,4.0,23,0.00,,,0.00,Wunderground v.1.15,2014-08-22 18:50:00,
2014-08-22 11:53:00,90.1,46.1,29.69,SSW,204,2.0,5.0,22,0.00,,,0.00,Wunderground v.1.15,2014-08-22 18:53:00,
2014-08-22 12:03:00,89.2,44.2,29.69,WNW,300,5.0,8.0,21,0.00,,,0.00,Wunderground v.1.15,2014-08-22 19:03:00,
2014-08-22 12:05:00,89.5,46.8,29.69,WSW,241,6.0,6.0,23,0.00,,,0.00,Wunderground v.1.15,2014-08-22 19:05:00,
2014-08-22 12:10:00,89.5,45.6,29.68,SSW,210,4.0,4.0,22,0.00,,,0.00,Wunderground v.1.15,2014-08-22 19:10:00,
2014-08-22 12:20:00,89.4,46.7,29.68,SSE,150,6.0,6.0,23,0.00,,,0.00,Wunderground v.1.15,2014-08-22 19:20:00,
2014-08-22 12:28:00,90.0,47.2,29.69,SW,229,4.0,4.0,23,0.00,,,0.00,Wunderground v.1.15,2014-08-22 19:28:00,
2014-08-22 12:48:00,90.0,46.0,29.68,West,269,3.0,9.0,22,0.00,,,0.00,Wunderground v.1.15,2014-08-22 19:48:00,
2014-08-22 12:58:00,89.4,45.5,29.68,WSW,245,6.0,6.0,22,0.00,,,0.00,Wunderground v.1.15,2014-08-22 19:58:00,
2014-08-22 13:08:00,89.7,47.0,29.68,South,190,5.0,6.0,23,0.00,,,0.00,Wunderground v.1.15,2014-08-22 20:08:00,
2014-08-22 13:18:00,91.1,47.0,29.67,SW,214,4.0,8.0,22,0.00,,,0.00,Wunderground v.1.15,2014-08-22 20:18:00,
2014-08-22 13:23:00,90.3,46.3,29.67,WNW,282,6.0,6.0,22,0.00,,,0.00,Wunderground v.1.15,2014-08-22 20:23:00,
2014-08-22 13:33:00,90.5,46.5,29.67,West,276,6.0,8.0,22,0.00,,,0.00,Wunderground v.1.15,2014-08-22 20:33:00,
2014-08-22 13:43:00,90.5,46.5,29.67,WSW,243,6.0,6.0,22,0.00,,,0.00,Wunderground v.1.15,2014-08-22 20:43:00,
2014-08-22 13:45:00,91.2,45.8,29.66,SW,236,5.0,7.0,21,0.00,,,0.00,Wunderground v.1.15,2014-08-22 20:45:00,
2014-08-22 13:48:00,91.0,46.9,29.67,SW,226,6.0,6.0,22,0.00,,,0.00,Wunderground v.1.15,2014-08-22 20:48:00,
2014-08-22 13:58:00,90.3,46.3,29.66,West,273,5.0,6.0,22,0.00,,,0.00,Wunderground v.1.15,2014-08-22 20:58:00,
2014-08-22 14:08:00,91.1,47.0,29.66,West,269,4.0,5.0,22,0.00,,,0.00,Wunderground v.1.15,2014-08-22 21:08:00,
2014-08-22 14:13:00,91.5,46.1,29.66,SE,134,4.0,7.0,21,0.00,,,0.00,Wunderground v.1.15,2014-08-22 21:13:00,
2014-08-22 14:23:00,91.5,46.1,29.66,South,178,4.0,4.0,21,0.00,,,0.00,Wunderground v.1.15,2014-08-22 21:23:00,
2014-08-22 14:33:00,91.6,46.1,29.66,West,264,3.0,3.0,21,0.00,,,0.00,Wunderground v.1.15,2014-08-22 21:33:00,
2014-08-22 14:38:00,91.7,46.2,29.66,ENE,78,4.0,5.0,21,0.00,,,0.00,Wunderground v.1.15,2014-08-22 21:38:00,
2014-08-22 14:48:00,91.7,46.2,29.65,SSW,194,3.0,3.0,21,0.00,,,0.00,Wunderground v.1.15,2014-08-22 21:48:00,
2014-08-22 14:58:00,90.6,46.5,29.65,WNW,290,5.0,5.0,22,0.00,,,0.00,Wunderground v.1.15,2014-08-22 21:58:00,
2014-08-22 15:08:00,91.7,47.5,29.65,West,261,3.0,8.0,22,0.00,,,0.00,Wunderground v.1.15,2014-08-22 22:08:00,
2014-08-22 15:18:00,91.9,46.4,29.65,West,264,6.0,10.0,21,0.00,,,0.00,Wunderground v.1.15,2014-08-22 22:18:00,
2014-08-22 15:28:00,91.3,45.9,29.64,West,263,6.0,6.0,21,0.00,,,0.00,Wunderground v.1.15,2014-08-22 22:28:00,
2014-08-22 15:33:00,91.3,45.9,29.64,SW,216,5.0,9.0,21,0.00,,,0.00,Wunderground v.1.15,2014-08-22 22:33:00,
2014-08-22 15:38:00,90.9,45.6,29.65,West,268,5.0,9.0,21,0.00,,,0.00,Wunderground v.1.15,2014-08-22 22:38:00,